Time,TemperatureF,DewpointF,PressureIn,WindDirection,WindDirectionDegrees,WindSpeedMPH,WindSpeedGustMPH,Humidity,HourlyPrecipIn,Conditions,Clouds,dailyrainin,SoftwareType,DateUTC
2013-03-08 00:02:00,60.3,52.0,28.62,SSE,157,4.9,12.1,74,0.00,,,0.00,Rainwise IP-100,2013-03-08 06:02:00,
2013-03-08 00:07:00,60.3,52.0,28.62,ESE,112,8.2,12.6,74,0.00,,,0.00,Rainwise IP-100,2013-03-08 06:07:00,
2013-03-08 00:12:00,60.3,52.0,28.62,ESE,112,3.7,13.1,74,0.00,,,0.00,Rainwise IP-100,2013-03-08 06:12:00,
2013-03-08 00:17:00,60.3,53.0,28.62,ESE,112,7.7,14.2,75,0.00,,,0.00,Rainwise IP-100,2013-03-08 06:17:00,
2013-03-08 00:22:00,60.3,53.0,28.62,SE,135,9.1,11.4,75,0.00,,,0.00,Rainwise IP-100,2013-03-08 06:22:00,
2013-03-08 00:27:00,60.3,53.0,28.62,East,90,10.3,15.4,75,0.00,,,0.00,Rainwise IP-100,2013-03-08 06:27:00,
2013-03-08 00:32:00,60.3,53.0,28.62,ESE,112,9.8,11.9,75,0.00,,,0.00,Rainwise IP-100,2013-03-08 06:32:00,
2013-03-08 00:37:00,60.3,53.0,28.62,SSE,157,5.6,14.2,75,0.00,,,0.00,Rainwise IP-100,2013-03-08 06:37:00,
2013-03-08 00:42:00,60.2,52.0,28.63,SE,135,8.2,14.0,75,0.00,,,0.00,Rainwise IP-100,2013-03-08 06:42:00,
2013-03-08 00:47:00,60.2,53.0,28.62,SSE,157,10.0,10.0,76,0.00,,,0.00,Rainwise IP-100,2013-03-08 06:47:00,
2013-03-08 00:52:00,60.2,53.0,28.62,SE,135,7.2,14.9,76,0.00,,,0.00,Rainwise IP-100,2013-03-08 06:52:00,
2013-03-08 00:57:00,60.1,53.0,28.62,SE,135,5.8,15.4,76,0.00,,,0.00,Rainwise IP-100,2013-03-08 06:57:00,
2013-03-08 01:02:00,60.0,53.0,28.61,ESE,112,14.5,14.9,76,0.00,,,0.00,Rainwise IP-100,2013-03-08 07:02:00,
2013-03-08 01:07:00,60.0,53.0,28.61,SE,135,3.7,14.9,77,0.00,,,0.00,Rainwise IP-100,2013-03-08 07:07:00,
2013-03-08 01:12:00,60.0,53.0,28.62,SSE,157,6.3,14.7,77,0.00,,,0.00,Rainwise IP-100,2013-03-08 07:12:00,
2013-03-08 01:16:00,59.9,53.0,28.62,SE,135,5.8,13.3,77,0.00,,,0.00,Rainwise IP-100,2013-03-08 07:16:00,
2013-03-08 01:21:00,59.9,53.0,28.63,SSE,157,4.7,10.5,77,0.00,,,0.00,Rainwise IP-100,2013-03-08 07:21:00,
2013-03-08 01:26:00,59.9,53.5,28.64,SSE,157,11.0,14.7,78,0.00,,,0.00,Rainwise IP-100,2013-03-08 07:26:00,
2013-03-08 01:31:00,59.8,53.5,28.62,SE,135,4.0,13.8,78,0.00,,,0.00,Rainwise IP-100,2013-03-08 07:31:00,
2013-03-08 01:36:00,59.7,53.0,28.62,SSE,157,3.5,9.6,78,0.00,,,0.00,Rainwise IP-100,2013-03-08 07:36:00,
2013-03-08 01:41:00,59.6,53.0,28.62,SE,135,5.6,12.4,79,0.00,,,0.00,Rainwise IP-100,2013-03-08 07:41:00,
2013-03-08 01:46:00,59.5,53.0,28.62,SE,135,7.9,12.4,79,0.00,,,0.00,Rainwise IP-100,2013-03-08 07:46:00,
2013-03-08 01:51:00,59.5,53.0,28.62,SSE,157,10.3,11.4,79,0.00,,,0.00,Rainwise IP-100,2013-03-08 07:51:00,
2013-03-08 01:56:00,59.4,53.0,28.62,SE,135,4.9,11.7,79,0.00,,,0.00,Rainwise IP-100,2013-03-08 07:56:00,
2013-03-08 02:01:00,59.3,53.5,28.62,ESE,112,4.7,13.8,80,0.00,,,0.00,Rainwise IP-100,2013-03-08 08:01:00,
2013-03-08 02:06:00,59.3,53.5,28.61,SE,135,4.0,10.3,80,0.00,,,0.00,Rainwise IP-100,2013-03-08 08:06:00,
2013-03-08 02:11:00,59.2,53.0,28.62,ESE,112,8.4,11.7,80,0.00,,,0.00,Rainwise IP-100,2013-03-08 08:11:00,
2013-03-08 02:16:00,59.2,53.0,28.61,ESE,112,6.8,10.3,80,0.00,,,0.00,Rainwise IP-100,2013-03-08 08:16:00,
2013-03-08 02:21:00,59.2,53.5,28.61,ESE,112,9.6,13.3,81,0.00,,,0.00,Rainwise IP-100,2013-03-08 08:21:00,
2013-03-08 02:26:00,59.1,53.5,28.61,SSE,157,6.1,12.6,81,0.00,,,0.00,Rainwise IP-100,2013-03-08 08:26:00,
2013-03-08 02:28:00,59.1,53.5,28.61,SE,135,7.0,13.3,81,0.00,,,0.00,Rainwise IP-100,2013-03-08 08:28:00,
2013-03-08 02:33:00,59.1,53.5,28.62,SSE,157,6.5,15.4,81,0.00,,,0.00,Rainwise IP-100,2013-03-08 08:33:00,
2013-03-08 02:38:00,59.1,53.5,28.60,ESE,112,8.2,13.8,82,0.00,,,0.00,Rainwise IP-100,2013-03-08 08:38:00,
2013-03-08 02:43:00,59.0,53.5,28.60,SSE,157,7.5,17.3,82,0.00,,,0.00,Rainwise IP-100,2013-03-08 08:43:00,
2013-03-08 02:48:00,59.0,53.5,28.60,SE,135,11.2,13.8,82,0.00,,,0.00,Rainwise IP-100,2013-03-08 08:48:00,
2013-03-08 02:53:00,59.0,54.0,28.61,SE,135,12.1,16.8,83,0.00,,,0.00,Rainwise IP-100,2013-03-08 08:53:00,
2013-03-08 02:58:00,58.9,54.0,28.61,SSE,157,4.9,15.4,83,0.00,,,0.00,Rainwise IP-100,2013-03-08 08:58:00,
2013-03-08 03:03:00,58.8,54.0,28.60,SE,135,4.4,13.3,84,0.00,,,0.00,Rainwise IP-100,2013-03-08 09:03:00,
2013-03-08 03:08:00,58.7,54.0,28.60,SSE,157,10.7,13.5,84,0.00,,,0.00,Rainwise IP-100,2013-03-08 09:08:00,
2013-03-08 03:13:00,58.5,54.5,28.60,ESE,112,8.4,14.5,85,0.00,,,0.00,Rainwise IP-100,2013-03-08 09:13:00,
2013-03-08 03:18:00,58.5,54.5,28.60,SSE,157,7.5,13.5,85,0.00,,,0.00,Rainwise IP-100,2013-03-08 09:18:00,
2013-03-08 03:23:00,58.4,54.0,28.60,SSE,157,6.1,12.8,86,0.00,,,0.00,Rainwise IP-100,2013-03-08 09:23:00,
2013-03-08 03:28:00,58.4,54.0,28.60,SE,135,8.2,13.3,86,0.00,,,0.00,Rainwise IP-100,2013-03-08 09:28:00,
2013-03-08 03:33:00,58.3,54.5,28.60,SSE,157,9.8,12.8,87,0.00,,,0.00,Rainwise IP-100,2013-03-08 09:33:00,
2013-03-08 03:38:00,58.4,54.5,28.61,SSW,202,6.3,18.7,87,0.00,,,0.00,Rainwise IP-100,2013-03-08 09:38:00,
2013-03-08 03:43:00,58.3,54.5,28.61,SE,135,5.8,16.3,87,0.00,,,0.00,Rainwise IP-100,2013-03-08 09:43:00,
2013-03-08 03:48:00,58.3,54.5,28.61,SE,135,4.7,11.2,87,0.00,,,0.00,Rainwise IP-100,2013-03-08 09:48:00,
2013-03-08 03:53:00,58.3,54.5,28.60,SSE,157,7.5,15.6,87,0.00,,,0.00,Rainwise IP-100,2013-03-08 09:53:00,
2013-03-08 03:58:00,58.3,54.5,28.60,SSE,157,2.6,12.8,87,0.00,,,0.00,Rainwise IP-100,2013-03-08 09:58:00,
2013-03-08 04:03:00,58.3,54.5,28.61,SSE,157,5.4,11.0,87,0.00,,,0.00,Rainwise IP-100,2013-03-08 10:03:00,
2013-03-08 04:08:00,58.3,54.5,28.60,SE,135,7.9,14.0,87,0.00,,,0.00,Rainwise IP-100,2013-03-08 10:08:00,
2013-03-08 04:13:00,58.3,54.5,28.60,SSE,157,10.7,15.2,87,0.00,,,0.00,Rainwise IP-100,2013-03-08 10:13:00,
2013-03-08 04:18:00,58.3,54.5,28.60,South,180,4.9,11.9,87,0.00,,,0.00,Rainwise IP-100,2013-03-08 10:18:00,
2013-03-08 04:23:00,58.3,54.5,28.60,SSE,157,11.4,11.7,88,0.00,,,0.00,Rainwise IP-100,2013-03-08 10:23:00,
2013-03-08 04:28:00,58.3,54.5,28.60,South,180,7.7,12.8,88,0.00,,,0.00,Rainwise IP-100,2013-03-08 10:28:00,
2013-03-08 04:33:00,58.3,54.5,28.60,SE,135,5.4,13.3,88,0.00,,,0.00,Rainwise IP-100,2013-03-08 10:33:00,
2013-03-08 04:38:00,58.4,54.5,28.60,SE,135,7.0,12.8,88,0.00,,,0.00,Rainwise IP-100,2013-03-08 10:38:00,
2013-03-08 04:43:00,58.3,54.5,28.60,SE,135,5.6,11.9,88,0.00,,,0.00,Rainwise IP-100,2013-03-08 10:43:00,
2013-03-08 04:48:00,58.4,54.5,28.60,SE,135,3.5,13.1,88,0.00,,,0.00,Rainwise IP-100,2013-03-08 10:48:00,
2013-03-08 04:53:00,58.4,54.5,28.60,SE,135,6.8,10.7,88,0.00,,,0.00,Rainwise IP-100,2013-03-08 10:53:00,
2013-03-08 04:58:00,58.4,54.5,28.60,ESE,112,16.3,16.3,88,0.00,,,0.00,Rainwise IP-100,2013-03-08 10:58:00,
2013-03-08 05:03:00,58.4,54.5,28.59,SSE,157,4.7,17.5,88,0.00,,,0.00,Rainwise IP-100,2013-03-08 11:03:00,
2013-03-08 05:08:00,58.4,54.5,28.60,SSE,157,5.4,12.6,88,0.00,,,0.00,Rainwise IP-100,2013-03-08 11:08:00,
2013-03-08 05:13:00,58.4,54.5,28.60,SSE,157,4.2,13.3,88,0.00,,,0.00,Rainwise IP-100,2013-03-08 11:13:00,
2013-03-08 05:18:00,58.3,54.5,28.59,SE,135,4.0,15.4,88,0.00,,,0.00,Rainwise IP-100,2013-03-08 11:18:00,
2013-03-08 05:23:00,58.2,54.5,28.60,SSE,157,9.6,14.0,88,0.00,,,0.00,Rainwise IP-100,2013-03-08 11:23:00,
2013-03-08 05:28:00,58.2,54.5,28.60,SSE,157,8.2,11.9,88,0.00,,,0.00,Rainwise IP-100,2013-03-08 11:28:00,
2013-03-08 05:33:00,58.1,54.5,28.60,SSE,157,6.1,12.4,88,0.00,,,0.00,Rainwise IP-100,2013-03-08 11:33:00,
2013-03-08 05:38:00,58.1,54.5,28.61,SE,135,5.1,14.7,88,0.00,,,0.00,Rainwise IP-100,2013-03-08 11:38:00,
2013-03-08 05:43:00,58.1,54.5,28.60,SSE,157,4.9,14.5,88,0.00,,,0.00,Rainwise IP-100,2013-03-08 11:43:00,
2013-03-08 05:48:00,58.1,55.0,28.60,SSE,157,7.7,12.6,89,0.00,,,0.00,Rainwise IP-100,2013-03-08 11:48:00,
2013-03-08 05:53:00,58.0,55.0,28.60,ESE,112,6.5,11.4,89,0.00,,,0.00,Rainwise IP-100,2013-03-08 11:53:00,
2013-03-08 05:58:00,58.0,55.0,28.61,SSE,157,6.5,13.8,89,0.00,,,0.00,Rainwise IP-100,2013-03-08 11:58:00,
2013-03-08 06:03:00,57.8,55.0,28.61,SE,135,8.4,12.8,89,0.00,,,0.00,Rainwise IP-100,2013-03-08 12:03:00,
2013-03-08 06:08:00,57.5,54.5,28.61,ESE,112,10.5,11.9,90,0.00,,,0.00,Rainwise IP-100,2013-03-08 12:08:00,
2013-03-08 06:13:00,57.4,54.5,28.60,SE,135,9.1,11.4,90,0.00,,,0.00,Rainwise IP-100,2013-03-08 12:13:00,
2013-03-08 06:18:00,57.2,54.0,28.61,SSE,157,7.0,11.4,90,0.00,,,0.00,Rainwise IP-100,2013-03-08 12:18:00,
2013-03-08 06:23:00,57.1,54.5,28.61,SE,135,4.0,10.5,91,0.00,,,0.00,Rainwise IP-100,2013-03-08 12:23:00,
2013-03-08 06:28:00,56.9,54.5,28.61,SSE,157,3.7,11.2,91,0.00,,,0.00,Rainwise IP-100,2013-03-08 12:28:00,
2013-03-08 06:33:00,56.8,54.5,28.61,ESE,112,7.5,11.7,92,0.00,,,0.00,Rainwise IP-100,2013-03-08 12:33:00,
2013-03-08 06:38:00,56.7,54.0,28.61,East,90,4.9,11.7,92,0.00,,,0.00,Rainwise IP-100,2013-03-08 12:38:00,
2013-03-08 06:43:00,56.6,54.5,28.60,SE,135,7.0,10.3,93,0.00,,,0.00,Rainwise IP-100,2013-03-08 12:43:00,
2013-03-08 06:48:00,56.4,54.5,28.61,SE,135,6.5,10.3,93,0.00,,,0.00,Rainwise IP-100,2013-03-08 12:48:00,
2013-03-08 06:53:00,56.4,54.5,28.61,SSE,157,7.5,11.0,94,0.00,,,0.00,Rainwise IP-100,2013-03-08 12:53:00,
2013-03-08 06:58:00,56.3,54.5,28.61,SSE,157,0.0,8.2,94,0.00,,,0.00,Rainwise IP-100,2013-03-08 12:58:00,
2013-03-08 07:03:00,56.2,54.0,28.62,ESE,112,7.0,11.4,94,0.00,,,0.00,Rainwise IP-100,2013-03-08 13:03:00,
2013-03-08 07:08:00,56.2,54.5,28.62,ESE,112,4.7,9.6,95,0.00,,,0.00,Rainwise IP-100,2013-03-08 13:08:00,
2013-03-08 07:13:00,56.1,54.5,28.63,North,360,3.7,10.5,95,0.00,,,0.00,Rainwise IP-100,2013-03-08 13:13:00,
2013-03-08 07:18:00,56.1,54.5,28.63,North,360,3.5,8.2,95,0.00,,,0.00,Rainwise IP-100,2013-03-08 13:18:00,
2013-03-08 07:23:00,56.1,54.5,28.64,North,360,3.5,7.5,96,0.00,,,0.00,Rainwise IP-100,2013-03-08 13:23:00,
2013-03-08 07:28:00,56.0,54.5,28.64,North,360,2.3,11.0,96,0.00,,,0.00,Rainwise IP-100,2013-03-08 13:28:00,
2013-03-08 07:33:00,56.0,54.5,28.64,North,360,1.9,9.1,96,0.00,,,0.00,Rainwise IP-100,2013-03-08 13:33:00,
2013-03-08 07:38:00,56.0,54.5,28.65,North,360,3.5,7.2,96,0.00,,,0.00,Rainwise IP-100,2013-03-08 13:38:00,
2013-03-08 07:43:00,55.9,55.0,28.65,North,360,3.5,8.4,97,0.00,,,0.00,Rainwise IP-100,2013-03-08 13:43:00,
2013-03-08 07:48:00,55.8,55.0,28.66,North,360,2.8,7.2,97,0.00,,,0.00,Rainwise IP-100,2013-03-08 13:48:00,
2013-03-08 07:53:00,55.7,55.0,28.66,North,360,3.3,5.8,97,0.00,,,0.00,Rainwise IP-100,2013-03-08 13:53:00,
2013-03-08 07:58:00,55.7,55.0,28.66,North,360,3.0,6.5,97,0.00,,,0.00,Rainwise IP-100,2013-03-08 13:58:00,
2013-03-08 08:03:00,55.7,55.0,28.66,North,360,5.1,6.3,97,0.00,,,0.00,Rainwise IP-100,2013-03-08 14:03:00,
2013-03-08 08:08:00,55.7,55.0,28.66,North,360,3.3,6.5,98,0.00,,,0.00,Rainwise IP-100,2013-03-08 14:08:00,
2013-03-08 08:13:00,55.8,55.0,28.67,North,360,4.0,6.5,98,0.00,,,0.00,Rainwise IP-100,2013-03-08 14:13:00,
2013-03-08 08:18:00,55.8,55.0,28.66,North,360,2.8,7.7,98,0.00,,,0.00,Rainwise IP-100,2013-03-08 14:18:00,
2013-03-08 08:23:00,55.7,55.0,28.67,North,360,2.6,8.6,98,0.00,,,0.00,Rainwise IP-100,2013-03-08 14:23:00,
2013-03-08 08:28:00,55.7,55.0,28.67,North,360,4.2,7.7,98,0.00,,,0.00,Rainwise IP-100,2013-03-08 14:28:00,
2013-03-08 08:33:00,55.8,56.0,28.66,North,360,6.3,6.5,99,0.00,,,0.00,Rainwise IP-100,2013-03-08 14:33:00,
2013-03-08 08:38:00,55.9,56.0,28.66,North,360,4.7,8.6,99,0.00,,,0.00,Rainwise IP-100,2013-03-08 14:38:00,
2013-03-08 08:43:00,55.9,56.0,28.66,North,360,5.1,8.4,99,0.00,,,0.00,Rainwise IP-100,2013-03-08 14:43:00,
2013-03-08 08:48:00,55.9,56.0,28.66,North,360,6.8,6.8,99,0.00,,,0.00,Rainwise IP-100,2013-03-08 14:48:00,
2013-03-08 08:53:00,56.0,56.0,28.66,North,360,4.4,8.6,99,0.00,,,0.00,Rainwise IP-100,2013-03-08 14:53:00,
2013-03-08 08:58:00,56.1,56.0,28.66,North,360,5.6,9.6,99,0.00,,,0.00,Rainwise IP-100,2013-03-08 14:58:00,
2013-03-08 09:03:00,56.1,56.0,28.66,North,360,4.7,7.9,99,0.00,,,0.00,Rainwise IP-100,2013-03-08 15:03:00,
2013-03-08 09:08:00,56.2,56.0,28.66,North,360,5.1,10.5,99,0.00,,,0.00,Rainwise IP-100,2013-03-08 15:08:00,
2013-03-08 09:13:00,56.3,56.5,28.66,North,360,5.8,10.0,99,0.00,,,0.00,Rainwise IP-100,2013-03-08 15:13:00,
2013-03-08 09:18:00,56.3,56.5,28.66,North,360,5.1,11.2,99,0.00,,,0.00,Rainwise IP-100,2013-03-08 15:18:00,
2013-03-08 09:23:00,56.4,56.5,28.66,North,360,8.9,10.7,99,0.00,,,0.00,Rainwise IP-100,2013-03-08 15:23:00,
2013-03-08 09:28:00,56.5,56.5,28.66,North,360,4.0,11.2,99,0.00,,,0.00,Rainwise IP-100,2013-03-08 15:28:00,
2013-03-08 09:33:00,56.6,56.5,28.66,North,360,6.1,11.2,99,0.00,,,0.00,Rainwise IP-100,2013-03-08 15:33:00,
2013-03-08 09:38:00,56.7,56.5,28.66,North,360,7.9,12.1,99,0.00,,,0.00,Rainwise IP-100,2013-03-08 15:38:00,
2013-03-08 09:43:00,56.7,56.5,28.66,North,360,3.3,11.2,99,0.00,,,0.00,Rainwise IP-100,2013-03-08 15:43:00,
2013-03-08 09:48:00,56.7,56.0,28.66,North,360,6.8,13.3,98,0.00,,,0.00,Rainwise IP-100,2013-03-08 15:48:00,
2013-03-08 09:53:00,56.8,56.5,28.66,North,360,7.0,9.6,98,0.00,,,0.00,Rainwise IP-100,2013-03-08 15:53:00,
2013-03-08 09:58:00,56.8,56.5,28.66,North,360,5.8,9.6,98,0.00,,,0.00,Rainwise IP-100,2013-03-08 15:58:00,
2013-03-08 10:03:00,56.8,56.5,28.66,North,360,3.7,10.5,98,0.00,,,0.00,Rainwise IP-100,2013-03-08 16:03:00,
2013-03-08 10:08:00,56.9,57.0,28.65,North,360,8.2,10.5,99,0.00,,,0.00,Rainwise IP-100,2013-03-08 16:08:00,
2013-03-08 10:13:00,57.0,57.0,28.65,North,360,3.5,11.4,99,0.00,,,0.00,Rainwise IP-100,2013-03-08 16:13:00,
2013-03-08 10:18:00,57.1,56.5,28.65,North,360,4.2,11.2,98,0.00,,,0.00,Rainwise IP-100,2013-03-08 16:18:00,
2013-03-08 10:23:00,57.2,56.5,28.65,North,360,3.5,11.4,98,0.00,,,0.00,Rainwise IP-100,2013-03-08 16:23:00,
2013-03-08 10:28:00,57.3,57.0,28.64,North,360,8.4,13.5,98,0.00,,,0.00,Rainwise IP-100,2013-03-08 16:28:00,
2013-03-08 10:33:00,57.5,57.0,28.64,North,360,10.5,11.9,98,0.00,,,0.00,Rainwise IP-100,2013-03-08 16:33:00,
2013-03-08 10:38:00,57.6,57.0,28.64,North,360,7.0,10.7,98,0.00,,,0.00,Rainwise IP-100,2013-03-08 16:38:00,
2013-03-08 10:43:00,57.8,57.5,28.64,North,360,4.9,12.4,97,0.00,,,0.00,Rainwise IP-100,2013-03-08 16:43:00,
2013-03-08 10:48:00,58.0,57.5,28.64,North,360,4.2,9.3,97,0.00,,,0.00,Rainwise IP-100,2013-03-08 16:48:00,
2013-03-08 10:53:00,58.0,57.5,28.64,North,360,7.5,11.0,97,0.00,,,0.00,Rainwise IP-100,2013-03-08 16:53:00,
2013-03-08 10:58:00,58.2,57.5,28.63,North,360,6.8,12.4,97,0.00,,,0.00,Rainwise IP-100,2013-03-08 16:58:00,
2013-03-08 11:03:00,58.5,57.5,28.63,North,360,8.4,14.5,96,0.00,,,0.00,Rainwise IP-100,2013-03-08 17:03:00,
2013-03-08 11:08:00,58.8,57.5,28.63,North,360,3.0,10.0,96,0.00,,,0.00,Rainwise IP-100,2013-03-08 17:08:00,
2013-03-08 11:13:00,59.0,57.5,28.63,North,360,8.9,10.7,95,0.00,,,0.00,Rainwise IP-100,2013-03-08 17:13:00,
2013-03-08 11:18:00,59.0,57.5,28.63,North,360,10.0,12.8,95,0.00,,,0.00,Rainwise IP-100,2013-03-08 17:18:00,
2013-03-08 11:23:00,59.1,57.0,28.63,North,360,9.6,12.4,94,0.00,,,0.00,Rainwise IP-100,2013-03-08 17:23:00,
2013-03-08 11:28:00,59.4,57.5,28.63,North,360,10.5,12.6,94,0.00,,,0.00,Rainwise IP-100,2013-03-08 17:28:00,
2013-03-08 11:33:00,59.8,57.5,28.63,North,360,8.4,14.0,93,0.00,,,0.00,Rainwise IP-100,2013-03-08 17:33:00,
2013-03-08 11:38:00,60.1,57.5,28.64,North,360,7.7,13.3,92,0.00,,,0.00,Rainwise IP-100,2013-03-08 17:38:00,
2013-03-08 11:43:00,60.2,57.5,28.64,North,360,5.8,14.0,92,0.00,,,0.00,Rainwise IP-100,2013-03-08 17:43:00,
2013-03-08 11:48:00,60.1,57.5,28.64,North,360,5.6,15.9,92,0.00,,,0.00,Rainwise IP-100,2013-03-08 17:48:00,
2013-03-08 11:53:00,60.0,57.5,28.64,North,360,7.7,12.1,92,0.00,,,0.00,Rainwise IP-100,2013-03-08 17:53:00,
2013-03-08 11:58:00,60.0,57.5,28.64,North,360,4.7,14.5,92,0.00,,,0.00,Rainwise IP-100,2013-03-08 17:58:00,
2013-03-08 12:03:00,60.1,57.5,28.64,ESE,112,14.7,16.6,92,0.00,,,0.00,Rainwise IP-100,2013-03-08 18:03:00,
2013-03-08 12:08:00,60.1,57.5,28.65,SSE,157,4.4,15.6,92,0.00,,,0.00,Rainwise IP-100,2013-03-08 18:08:00,
2013-03-08 12:13:00,60.1,57.5,28.64,SSE,157,9.1,10.3,92,0.00,,,0.00,Rainwise IP-100,2013-03-08 18:13:00,
2013-03-08 12:18:00,60.2,57.5,28.64,ESE,112,11.0,15.4,92,0.00,,,0.00,Rainwise IP-100,2013-03-08 18:18:00,
2013-03-08 12:23:00,60.2,57.5,28.64,SSE,157,4.7,15.4,92,0.00,,,0.00,Rainwise IP-100,2013-03-08 18:23:00,
2013-03-08 12:28:00,60.1,57.5,28.64,North,360,11.9,12.8,92,0.00,,,0.00,Rainwise IP-100,2013-03-08 18:28:00,
2013-03-08 12:33:00,60.1,57.5,28.63,SSE,157,2.6,15.4,92,0.00,,,0.00,Rainwise IP-100,2013-03-08 18:33:00,
2013-03-08 12:38:00,60.2,57.5,28.63,ESE,112,8.2,13.1,92,0.00,,,0.00,Rainwise IP-100,2013-03-08 18:38:00,
2013-03-08 12:43:00,60.3,58.0,28.62,ESE,112,10.5,11.0,92,0.00,,,0.00,Rainwise IP-100,2013-03-08 18:43:00,
2013-03-08 12:48:00,60.4,58.0,28.62,SE,135,4.0,12.6,92,0.00,,,0.00,Rainwise IP-100,2013-03-08 18:48:00,
2013-03-08 12:53:00,60.4,58.0,28.62,SSE,157,5.8,15.2,92,0.00,,,0.00,Rainwise IP-100,2013-03-08 18:53:00,
2013-03-08 12:58:00,60.5,57.5,28.62,SSE,157,7.5,12.6,91,0.00,,,0.00,Rainwise IP-100,2013-03-08 18:58:00,
2013-03-08 13:03:00,60.4,57.5,28.61,ESE,112,4.7,10.0,91,0.00,,,0.00,Rainwise IP-100,2013-03-08 19:03:00,
2013-03-08 13:08:00,59.9,57.0,28.61,ESE,112,8.6,11.0,91,0.00,,,0.00,Rainwise IP-100,2013-03-08 19:08:00,
2013-03-08 13:13:00,59.3,56.5,28.60,ESE,112,6.5,10.5,91,0.00,,,0.00,Rainwise IP-100,2013-03-08 19:13:00,
2013-03-08 13:18:00,58.7,56.5,28.60,ESE,112,7.2,11.7,91,0.00,,,0.00,Rainwise IP-100,2013-03-08 19:18:00,
2013-03-08 13:23:00,58.2,56.0,28.60,ENE,67,7.5,11.2,92,0.00,,,0.00,Rainwise IP-100,2013-03-08 19:23:00,
2013-03-08 13:28:00,57.9,56.5,28.59,East,90,9.1,12.8,93,0.00,,,0.00,Rainwise IP-100,2013-03-08 19:28:00,
2013-03-08 13:33:00,57.8,56.5,28.59,ESE,112,2.6,11.4,93,0.00,,,0.00,Rainwise IP-100,2013-03-08 19:33:00,
2013-03-08 13:38:00,57.8,56.5,28.59,ESE,112,8.9,11.7,94,0.00,,,0.00,Rainwise IP-100,2013-03-08 19:38:00,
2013-03-08 13:43:00,57.8,56.5,28.59,SSE,157,5.6,14.2,94,0.00,,,0.00,Rainwise IP-100,2013-03-08 19:43:00,
2013-03-08 13:48:00,57.9,56.5,28.59,ESE,112,7.7,12.6,94,0.00,,,0.00,Rainwise IP-100,2013-03-08 19:48:00,
2013-03-08 13:53:00,58.1,56.5,28.59,North,360,7.9,9.8,94,0.00,,,0.00,Rainwise IP-100,2013-03-08 19:53:00,
2013-03-08 13:58:00,58.3,56.5,28.59,ESE,112,5.8,9.6,94,0.00,,,0.00,Rainwise IP-100,2013-03-08 19:58:00,
2013-03-08 14:03:00,58.6,57.0,28.59,East,90,5.8,11.2,93,0.00,,,0.00,Rainwise IP-100,2013-03-08 20:03:00,
2013-03-08 14:08:00,58.9,57.0,28.58,ESE,112,9.1,13.3,93,0.00,,,0.00,Rainwise IP-100,2013-03-08 20:08:00,
2013-03-08 14:13:00,59.1,57.0,28.58,SSE,157,6.1,16.1,93,0.00,,,0.00,Rainwise IP-100,2013-03-08 20:13:00,
2013-03-08 14:18:00,59.4,57.0,28.58,SSE,157,8.4,12.6,92,0.00,,,0.00,Rainwise IP-100,2013-03-08 20:18:00,
2013-03-08 14:23:00,59.7,57.0,28.58,SE,135,6.5,13.5,92,0.00,,,0.00,Rainwise IP-100,2013-03-08 20:23:00,
2013-03-08 14:28:00,59.9,57.5,28.58,ESE,112,5.4,13.1,92,0.00,,,0.00,Rainwise IP-100,2013-03-08 20:28:00,
2013-03-08 14:33:00,59.9,57.0,28.57,ESE,112,7.2,12.8,91,0.00,,,0.00,Rainwise IP-100,2013-03-08 20:33:00,
2013-03-08 14:38:00,59.8,57.0,28.57,ESE,112,3.5,11.4,91,0.00,,,0.00,Rainwise IP-100,2013-03-08 20:38:00,
2013-03-08 14:43:00,60.0,57.0,28.56,ESE,112,4.7,11.7,91,0.00,,,0.00,Rainwise IP-100,2013-03-08 20:43:00,
2013-03-08 14:48:00,60.3,57.5,28.56,ESE,112,3.5,11.9,91,0.00,,,0.00,Rainwise IP-100,2013-03-08 20:48:00,
2013-03-08 14:53:00,60.5,57.5,28.56,SE,135,3.7,13.1,91,0.00,,,0.00,Rainwise IP-100,2013-03-08 20:53:00,
2013-03-08 14:58:00,60.8,58.0,28.56,SE,135,2.8,11.2,90,0.00,,,0.00,Rainwise IP-100,2013-03-08 20:58:00,
2013-03-08 15:03:00,61.0,58.0,28.56,SSE,157,3.5,11.0,90,0.00,,,0.00,Rainwise IP-100,2013-03-08 21:03:00,
2013-03-08 15:08:00,61.4,58.0,28.55,SE,135,4.7,10.5,89,0.00,,,0.00,Rainwise IP-100,2013-03-08 21:08:00,
2013-03-08 15:13:00,61.7,58.0,28.56,SSE,157,3.3,11.9,89,0.00,,,0.00,Rainwise IP-100,2013-03-08 21:13:00,
2013-03-08 15:18:00,61.9,58.0,28.55,SE,135,7.0,9.8,88,0.00,,,0.00,Rainwise IP-100,2013-03-08 21:18:00,
2013-03-08 15:23:00,62.1,58.0,28.55,ESE,112,9.3,14.5,88,0.00,,,0.00,Rainwise IP-100,2013-03-08 21:23:00,
2013-03-08 15:28:00,62.0,58.0,28.56,ESE,112,11.0,13.5,88,0.00,,,0.00,Rainwise IP-100,2013-03-08 21:28:00,
2013-03-08 15:33:00,62.0,58.0,28.56,SE,135,6.5,12.6,88,0.00,,,0.00,Rainwise IP-100,2013-03-08 21:33:00,
2013-03-08 15:38:00,62.2,58.0,28.55,ESE,112,8.6,14.5,88,0.00,,,0.00,Rainwise IP-100,2013-03-08 21:38:00,
2013-03-08 15:43:00,62.5,59.0,28.55,SE,135,6.3,15.6,88,0.00,,,0.00,Rainwise IP-100,2013-03-08 21:43:00,
2013-03-08 15:48:00,63.2,59.0,28.55,ESE,112,7.0,12.4,87,0.00,,,0.00,Rainwise IP-100,2013-03-08 21:48:00,
2013-03-08 15:53:00,63.9,59.5,28.55,East,90,4.2,15.9,85,0.00,,,0.00,Rainwise IP-100,2013-03-08 21:53:00,
2013-03-08 15:58:00,63.8,59.5,28.55,ESE,112,6.8,13.1,85,0.00,,,0.00,Rainwise IP-100,2013-03-08 21:58:00,
2013-03-08 16:03:00,63.5,59.0,28.55,ESE,112,5.1,15.2,85,0.00,,,0.00,Rainwise IP-100,2013-03-08 22:03:00,
2013-03-08 16:08:00,63.1,59.0,28.55,SE,135,7.5,18.2,86,0.00,,,0.00,Rainwise IP-100,2013-03-08 22:08:00,
2013-03-08 16:13:00,63.1,59.0,28.54,SE,135,5.6,15.6,86,0.00,,,0.00,Rainwise IP-100,2013-03-08 22:13:00,
2013-03-08 16:18:00,63.4,59.5,28.54,East,90,10.5,16.6,86,0.00,,,0.00,Rainwise IP-100,2013-03-08 22:18:00,
2013-03-08 16:23:00,63.6,59.5,28.54,SSE,157,8.9,16.1,86,0.00,,,0.00,Rainwise IP-100,2013-03-08 22:23:00,
2013-03-08 16:28:00,63.6,59.5,28.54,SSE,157,9.3,18.4,86,0.00,,,0.00,Rainwise IP-100,2013-03-08 22:28:00,
2013-03-08 16:33:00,63.6,59.0,28.54,SE,135,11.0,18.7,85,0.00,,,0.00,Rainwise IP-100,2013-03-08 22:33:00,
2013-03-08 16:38:00,63.5,59.0,28.53,SSE,157,8.2,16.6,85,0.00,,,0.00,Rainwise IP-100,2013-03-08 22:38:00,
2013-03-08 16:43:00,63.3,59.5,28.53,SSW,202,9.8,18.9,86,0.00,,,0.00,Rainwise IP-100,2013-03-08 22:43:00,
2013-03-08 16:48:00,63.1,59.0,28.54,South,180,14.2,18.7,86,0.00,,,0.00,Rainwise IP-100,2013-03-08 22:48:00,
2013-03-08 16:53:00,63.0,59.0,28.53,East,90,6.1,18.2,87,0.00,,,0.00,Rainwise IP-100,2013-03-08 22:53:00,
2013-03-08 16:58:00,63.1,59.0,28.53,SE,135,10.5,16.1,87,0.00,,,0.00,Rainwise IP-100,2013-03-08 22:58:00,
2013-03-08 17:03:00,63.2,59.0,28.54,SE,135,13.5,14.5,87,0.00,,,0.00,Rainwise IP-100,2013-03-08 23:03:00,
2013-03-08 17:08:00,63.0,59.0,28.54,ESE,112,14.0,19.8,87,0.00,,,0.00,Rainwise IP-100,2013-03-08 23:08:00,
2013-03-08 17:13:00,62.9,59.0,28.54,SE,135,11.0,16.6,87,0.00,,,0.00,Rainwise IP-100,2013-03-08 23:13:00,
2013-03-08 17:18:00,62.8,59.5,28.55,SSE,157,4.2,18.2,88,0.00,,,0.00,Rainwise IP-100,2013-03-08 23:18:00,
2013-03-08 17:23:00,62.7,59.0,28.54,South,180,10.3,21.0,88,0.00,,,0.00,Rainwise IP-100,2013-03-08 23:23:00,
2013-03-08 17:28:00,62.7,59.0,28.55,SSE,157,11.2,18.4,88,0.00,,,0.00,Rainwise IP-100,2013-03-08 23:28:00,
2013-03-08 17:33:00,62.6,59.0,28.54,ESE,112,5.6,18.0,88,0.00,,,0.00,Rainwise IP-100,2013-03-08 23:33:00,
2013-03-08 17:38:00,62.6,59.5,28.54,SSE,157,4.7,15.9,89,0.00,,,0.00,Rainwise IP-100,2013-03-08 23:38:00,
2013-03-08 17:43:00,62.5,59.5,28.55,SSE,157,6.5,14.9,89,0.00,,,0.00,Rainwise IP-100,2013-03-08 23:43:00,
2013-03-08 17:48:00,62.4,59.5,28.55,SE,135,13.8,14.0,89,0.00,,,0.00,Rainwise IP-100,2013-03-08 23:48:00,
2013-03-08 17:53:00,62.1,59.0,28.56,ESE,112,6.3,21.7,90,0.00,,,0.00,Rainwise IP-100,2013-03-08 23:53:00,
2013-03-08 17:58:00,61.7,59.5,28.55,SE,135,6.5,11.7,92,0.00,,,0.00,Rainwise IP-100,2013-03-08 23:58:00,
2013-03-08 18:03:00,61.4,59.5,28.55,SE,135,4.9,14.0,93,0.00,,,0.00,Rainwise IP-100,2013-03-09 00:03:00,
2013-03-08 18:08:00,61.3,60.0,28.55,ESE,112,5.4,12.4,94,0.00,,,0.00,Rainwise IP-100,2013-03-09 00:08:00,
2013-03-08 18:13:00,61.3,60.0,28.55,SSE,157,6.3,12.4,94,0.00,,,0.00,Rainwise IP-100,2013-03-09 00:13:00,
2013-03-08 18:18:00,61.4,60.0,28.53,ESE,112,11.4,16.3,94,0.00,,,0.00,Rainwise IP-100,2013-03-09 00:18:00,
2013-03-08 18:23:00,61.6,59.5,28.53,North,360,6.3,17.0,93,0.00,,,0.00,Rainwise IP-100,2013-03-09 00:23:00,
2013-03-08 18:28:00,61.7,59.5,28.54,SSE,157,10.5,14.9,93,0.00,,,0.00,Rainwise IP-100,2013-03-09 00:28:00,
2013-03-08 18:33:00,61.7,59.5,28.54,SSE,157,13.1,14.9,93,0.00,,,0.00,Rainwise IP-100,2013-03-09 00:33:00,
2013-03-08 18:38:00,61.8,60.0,28.55,ESE,112,7.5,14.5,93,0.00,,,0.00,Rainwise IP-100,2013-03-09 00:38:00,
2013-03-08 18:43:00,62.0,60.0,28.54,North,360,7.2,16.6,93,0.00,,,0.00,Rainwise IP-100,2013-03-09 00:43:00,
2013-03-08 18:48:00,62.0,60.0,28.54,SSE,157,5.6,15.9,93,0.00,,,0.00,Rainwise IP-100,2013-03-09 00:48:00,
2013-03-08 18:53:00,62.0,60.0,28.55,ESE,112,4.7,14.9,92,0.00,,,0.00,Rainwise IP-100,2013-03-09 00:53:00,
2013-03-08 18:58:00,62.1,60.0,28.54,SSE,157,7.5,13.1,92,0.00,,,0.00,Rainwise IP-100,2013-03-09 00:58:00,
2013-03-08 19:03:00,62.1,60.0,28.55,SSE,157,8.4,14.7,93,0.00,,,0.00,Rainwise IP-100,2013-03-09 01:03:00,
2013-03-08 19:08:00,62.2,60.0,28.54,North,360,6.5,13.1,93,0.00,,,0.00,Rainwise IP-100,2013-03-09 01:08:00,
2013-03-08 19:13:00,62.2,60.0,28.54,North,360,9.8,17.7,93,0.00,,,0.00,Rainwise IP-100,2013-03-09 01:13:00,
2013-03-08 19:18:00,62.2,60.0,28.54,ESE,112,9.3,16.1,93,0.00,,,0.00,Rainwise IP-100,2013-03-09 01:18:00,
2013-03-08 19:23:00,62.2,60.0,28.53,SSE,157,9.8,18.0,93,0.00,,,0.00,Rainwise IP-100,2013-03-09 01:23:00,
2013-03-08 19:28:00,62.2,60.0,28.53,North,360,5.6,17.3,93,0.00,,,0.00,Rainwise IP-100,2013-03-09 01:28:00,
2013-03-08 19:33:00,62.2,60.0,28.53,SSE,157,7.9,17.7,93,0.00,,,0.00,Rainwise IP-100,2013-03-09 01:33:00,
2013-03-08 19:38:00,62.2,60.0,28.53,North,360,11.4,17.7,93,0.00,,,0.00,Rainwise IP-100,2013-03-09 01:38:00,
2013-03-08 19:43:00,62.2,60.0,28.53,ESE,112,11.2,16.1,93,0.00,,,0.00,Rainwise IP-100,2013-03-09 01:43:00,
2013-03-08 19:48:00,62.3,60.5,28.53,North,360,14.5,17.5,93,0.00,,,0.00,Rainwise IP-100,2013-03-09 01:48:00,
2013-03-08 19:53:00,62.4,60.5,28.53,SSE,157,9.8,21.9,93,0.00,,,0.00,Rainwise IP-100,2013-03-09 01:53:00,
2013-03-08 19:58:00,62.4,60.5,28.53,SSE,157,9.8,14.9,93,0.00,,,0.00,Rainwise IP-100,2013-03-09 01:58:00,
2013-03-08 20:03:00,62.4,60.5,28.53,SSE,157,9.6,16.8,93,0.00,,,0.00,Rainwise IP-100,2013-03-09 02:03:00,
2013-03-08 20:08:00,62.5,60.5,28.53,SSE,157,8.2,16.1,93,0.00,,,0.00,Rainwise IP-100,2013-03-09 02:08:00,
2013-03-08 20:13:00,62.5,60.5,28.54,ESE,112,11.9,18.2,93,0.00,,,0.00,Rainwise IP-100,2013-03-09 02:13:00,
2013-03-08 20:18:00,62.5,60.0,28.54,SSE,157,12.1,17.5,92,0.00,,,0.00,Rainwise IP-100,2013-03-09 02:18:00,
2013-03-08 20:23:00,62.6,60.0,28.54,North,360,13.8,19.1,92,0.00,,,0.00,Rainwise IP-100,2013-03-09 02:23:00,
2013-03-08 20:28:00,62.6,60.0,28.53,ESE,112,8.9,21.7,92,0.00,,,0.00,Rainwise IP-100,2013-03-09 02:28:00,
2013-03-08 20:33:00,62.6,60.0,28.53,North,360,8.6,17.3,92,0.00,,,0.00,Rainwise IP-100,2013-03-09 02:33:00,
2013-03-08 20:38:00,62.6,60.0,28.53,ESE,112,14.5,20.8,92,0.00,,,0.00,Rainwise IP-100,2013-03-09 02:38:00,
2013-03-08 20:43:00,62.6,60.0,28.53,SE,135,4.7,17.5,92,0.00,,,0.00,Rainwise IP-100,2013-03-09 02:43:00,
2013-03-08 20:48:00,62.6,60.0,28.53,SSE,157,7.2,16.1,91,0.00,,,0.00,Rainwise IP-100,2013-03-09 02:48:00,
2013-03-08 20:53:00,62.7,60.0,28.53,SE,135,8.2,20.8,91,0.00,,,0.00,Rainwise IP-100,2013-03-09 02:53:00,
2013-03-08 20:58:00,62.7,60.0,28.53,ESE,112,17.3,18.4,91,0.00,,,0.00,Rainwise IP-100,2013-03-09 02:58:00,
2013-03-08 21:03:00,62.7,60.0,28.53,SE,135,16.8,22.4,91,0.00,,,0.00,Rainwise IP-100,2013-03-09 03:03:00,
2013-03-08 21:08:00,62.7,60.0,28.53,SE,135,13.3,22.4,91,0.00,,,0.00,Rainwise IP-100,2013-03-09 03:08:00,
2013-03-08 21:13:00,62.7,60.0,28.53,ESE,112,7.9,17.7,91,0.00,,,0.00,Rainwise IP-100,2013-03-09 03:13:00,
2013-03-08 21:18:00,62.7,60.0,28.53,SSE,157,6.8,15.9,91,0.00,,,0.00,Rainwise IP-100,2013-03-09 03:18:00,
2013-03-08 21:23:00,62.7,60.0,28.53,SE,135,7.9,15.6,91,0.00,,,0.00,Rainwise IP-100,2013-03-09 03:23:00,
2013-03-08 21:28:00,62.7,60.0,28.53,SSW,202,9.1,23.3,91,0.00,,,0.00,Rainwise IP-100,2013-03-09 03:28:00,
2013-03-08 21:34:00,62.6,60.0,28.53,SSE,157,13.8,17.3,91,0.00,,,0.00,Rainwise IP-100,2013-03-09 03:34:00,
2013-03-08 21:39:00,62.6,60.0,28.53,SSE,157,9.3,20.3,91,0.00,,,0.00,Rainwise IP-100,2013-03-09 03:39:00,
2013-03-08 21:44:00,62.6,59.5,28.52,SE,135,5.6,17.3,90,0.00,,,0.00,Rainwise IP-100,2013-03-09 03:44:00,
2013-03-08 21:49:00,62.6,59.5,28.53,SE,135,11.7,20.5,90,0.00,,,0.00,Rainwise IP-100,2013-03-09 03:49:00,
2013-03-08 21:54:00,62.6,59.5,28.52,SSW,202,5.4,20.5,90,0.00,,,0.00,Rainwise IP-100,2013-03-09 03:54:00,
2013-03-08 21:59:00,62.6,59.5,28.52,SSE,157,10.0,20.1,90,0.00,,,0.00,Rainwise IP-100,2013-03-09 03:59:00,
2013-03-08 22:04:00,62.6,59.5,28.53,SE,135,6.1,21.0,90,0.00,,,0.00,Rainwise IP-100,2013-03-09 04:04:00,
2013-03-08 22:09:00,62.6,59.5,28.53,SSE,157,12.6,23.3,90,0.00,,,0.00,Rainwise IP-100,2013-03-09 04:09:00,
2013-03-08 22:14:00,62.6,59.5,28.53,SE,135,4.9,21.0,89,0.00,,,0.00,Rainwise IP-100,2013-03-09 04:14:00,
2013-03-08 22:19:00,62.6,59.5,28.52,SSE,157,7.7,19.6,89,0.00,,,0.00,Rainwise IP-100,2013-03-09 04:19:00,
2013-03-08 22:24:00,62.5,59.5,28.52,SSE,157,9.6,20.5,89,0.00,,,0.00,Rainwise IP-100,2013-03-09 04:24:00,
2013-03-08 22:29:00,62.5,59.5,28.52,SSE,157,9.3,20.3,89,0.00,,,0.00,Rainwise IP-100,2013-03-09 04:29:00,
2013-03-08 22:34:00,62.5,59.5,28.52,South,180,18.7,24.0,89,0.00,,,0.00,Rainwise IP-100,2013-03-09 04:34:00,
2013-03-08 22:39:00,62.4,59.5,28.52,ESE,112,10.0,25.2,89,0.00,,,0.00,Rainwise IP-100,2013-03-09 04:39:00,
2013-03-08 22:44:00,62.4,59.5,28.52,ESE,112,7.2,25.6,89,0.00,,,0.00,Rainwise IP-100,2013-03-09 04:44:00,
2013-03-08 22:49:00,62.4,59.5,28.52,ESE,112,21.2,21.2,89,0.00,,,0.00,Rainwise IP-100,2013-03-09 04:49:00,
2013-03-08 22:54:00,62.3,59.5,28.52,SE,135,9.1,24.0,89,0.00,,,0.00,Rainwise IP-100,2013-03-09 04:54:00,
2013-03-08 22:59:00,62.2,59.0,28.51,SSW,202,5.6,18.0,89,0.00,,,0.00,Rainwise IP-100,2013-03-09 04:59:00,
2013-03-08 23:00:00,62.2,59.0,28.51,SSE,157,12.6,18.0,89,0.00,,,0.00,Rainwise IP-100,2013-03-09 05:00:00,
2013-03-08 23:05:00,62.2,58.0,28.51,SE,135,6.1,23.3,88,0.00,,,0.00,Rainwise IP-100,2013-03-09 05:05:00,
2013-03-08 23:10:00,62.2,58.0,28.50,South,180,13.8,21.7,88,0.00,,,0.00,Rainwise IP-100,2013-03-09 05:10:00,
2013-03-08 23:15:00,62.1,58.0,28.51,ESE,112,7.0,25.2,88,0.00,,,0.00,Rainwise IP-100,2013-03-09 05:15:00,
2013-03-08 23:20:00,62.1,58.0,28.51,SSE,157,9.6,25.6,88,0.00,,,0.00,Rainwise IP-100,2013-03-09 05:20:00,
2013-03-08 23:25:00,62.0,58.0,28.51,SSE,157,12.4,21.7,88,0.00,,,0.00,Rainwise IP-100,2013-03-09 05:25:00,
2013-03-08 23:28:00,62.0,59.0,28.51,SSE,157,6.5,16.3,89,0.00,,,0.00,Rainwise IP-100,2013-03-09 05:28:00,
2013-03-08 23:33:00,62.0,58.0,28.50,SE,135,7.2,20.1,88,0.00,,,0.00,Rainwise IP-100,2013-03-09 05:33:00,
2013-03-08 23:38:00,61.9,58.0,28.50,SE,135,9.6,15.4,88,0.00,,,0.00,Rainwise IP-100,2013-03-09 05:38:00,
2013-03-08 23:43:00,61.9,58.0,28.49,South,180,12.1,21.5,88,0.00,,,0.00,Rainwise IP-100,2013-03-09 05:43:00,
2013-03-08 23:48:00,61.8,58.0,28.49,ESE,112,6.5,20.1,88,0.00,,,0.00,Rainwise IP-100,2013-03-09 05:48:00,
2013-03-08 23:53:00,61.8,58.0,28.49,SSE,157,11.2,17.0,88,0.00,,,0.00,Rainwise IP-100,2013-03-09 05:53:00,
2013-03-08 23:58:00,61.7,57.5,28.49,SSE,157,10.0,19.8,88,0.00,,,0.00,Rainwise IP-100,2013-03-09 05:58:00,